TIME,DELAY(SENSOR),PRES,OXYGEN,RAWTEMP,T(OPTODE),TCPHASE,FLUOR,BETA(BETA700),BETA(BETA412),BETA(BETA440),CDOM,C(CSC),ED(ED412.20),ED(ED444.00),ED(ED489.60),ED(ED554.30),LU(LU412.10),LU(LU443.90),LU(LU489.70),LU(LU554.70),COMP,TILTX,TILTY,CHECK
1333511438,5809,892.2100219726562000,38.9524116516113300,563.8179931640625000,4.3675079345703125,55.7076187133789060,55,100,101,78,83,15466,0,0,0,0,2147125659,2147776155,2147571099,2147577435,2776,2,13,61466
1333515034,5813,973.9400024414062000,41.8492202758789060,568.9603271484375000,4.2078652381896970,55.3316192626953100,56,101,101,79,83,15466,0,0,0,0,2147122651,2147779008,2147576283,2147572608,3393,2,13,19535
1333518634,5813,996.2700195312500000,42.5341987609863300,570.4929199218750000,4.1602439880371090,55.2460289001464840,55,100,102,78,84,15464,0,0,0,0,2147125238,2147780937,2147575040,2147575040,441,2,13,55149
1333522234,5810,1004.5200195312500000,42.5419998168945300,570.5631713867188000,4.1580581665039060,55.2444915771484400,55,98,101,79,83,15466,0,0,0,0,2147127670,2147779520,2147573915,2147571584,3579,2,13,40858
1333525834,5812,1011.9699707031250000,42.4159507751464840,570.5952758789062000,4.1570591926574710,55.2635993957519500,55,100,101,78,83,15458,0,0,0,0,2147124964,2147779209,2147578742,2147574098,3393,2,13,42135
1333529434,5808,1017.1799926757812000,42.7341003417968750,570.6801757812500000,4.1544232368469240,55.2225608825683600,56,99,102,79,84,15462,0,0,0,0,2147124452,2147778486,2147573494,2147572105,265,2,13,14646
1333533034,5808,1017.3400268554688000,42.7867698669433600,570.8950195312500000,4.1477451324462890,55.2164611816406250,55,99,102,79,83,15417,0,0,0,0,2147128173,2147781604,2147576338,2147572553,248,2,13,20231
1333536634,5809,1015.9400024414062000,41.3382797241210940,570.1121215820312000,4.1720790863037110,55.4162902832031250,55,98,102,82,84,15415,0,0,0,0,2147126326,2147780845,2147572544,2147568987,3523,2,13,11485
1333540234,5809,1006.8400268554688000,42.2453384399414060,571.9302978515625000,4.1155610084533690,55.3074111938476560,54,99,102,77,82,15458,0,0,0,0,2147122285,2147787053,2147573924,2147573174,139,2,13,5084
1333543834,5810,1012.2800292968750000,45.1807403564453100,573.4285888671875000,4.0689640045166020,54.9006996154785160,56,100,101,80,83,15458,0,0,0,0,2147127808,2147779172,2147572461,2147575104,3306,2,13,62726
1333547434,5810,1010.7500000000000000,43.7506599426269500,573.1583251953125000,4.0773739814758300,55.0986289978027340,55,101,101,79,84,15457,0,0,0,0,2147126171,2147778267,2147575131,2147572425,3567,2,13,37281
1333551034,5807,1004.3699951171875000,44.1550102233886700,573.4379882812500000,4.0686740875244140,55.0475196838378900,54,101,102,79,84,15458,0,0,0,0,2147125312,2147777700,2147572333,2147573805,114,2,13,64885
1333554634,5810,1006.1400146484375000,46.1194610595703100,573.9575195312500000,4.0525150299072270,54.7764892578125000,55,101,102,78,82,15458,0,0,0,0,2147126774,2147778596,2147569069,2147572224,3110,2,13,61856
1333558234,5810,1001.2899780273438000,45.9936790466308600,576.2941284179688000,3.9798009395599365,54.8223304748535160,55,100,101,77,83,15458,0,0,0,0,2147124928,2147780169,2147577682,2147576630,3470,2,13,59581
1333561834,5807,1006.2000122070312000,46.4544601440429700,576.0151977539062000,3.9884819984436035,54.7510414123535160,55,103,101,78,84,15460,0,0,0,0,2147122560,2147779849,2147573211,2147575433,206,2,13,21227
1333565434,5804,1003.7899780273438000,45.7843513488769500,576.6616821289062000,3.9683570861816406,54.8524017333984400,56,100,101,79,83,15460,0,0,0,0,2147127076,2147775917,2147571684,2147574235,299,2,13,2499
1333569034,5812,1005.4199829101562000,45.0163497924804700,576.3383789062500000,3.9784200191497803,54.9595985412597660,55,100,101,79,84,15459,0,0,0,0,2147126354,2147778267,2147572013,2147571794,161,2,13,23573
1333572634,5811,1015.6699829101562000,46.3494300842285160,574.5447998046875000,4.0342411994934080,54.7537117004394500,55,99,103,80,84,15459,0,0,0,0,2147127131,2147775104,2147573970,2147575122,3232,2,13,39646
1333576234,5807,1020.1500244140625000,45.3109703063964840,573.5100708007812000,4.0664310455322270,54.8858489990234400,55,101,102,79,84,15457,0,0,0,0,2147124443,2147778221,2147569280,2147574400,396,2,13,3333
1333579834,5807,1022.3800048828125000,42.0071907043457000,571.3117065429688000,4.1347899436950680,55.3313217163085940,56,101,102,78,84,15458,0,0,0,0,2147124352,2147777654,2147570651,2147574747,354,2,13,39266
1333583434,5806,1021.1400146484375000,41.6178894042968750,571.3715209960938000,4.1329350471496580,55.3879890441894500,56,101,101,79,84,15457,0,0,0,0,2147124672,2147778258,2147572470,2147576932,642,2,13,42228
1333587034,5811,1016.2999877929688000,42.0224990844726560,572.6245727539062000,4.0939688682556150,55.3419189453125000,55,99,101,78,85,15455,0,0,0,0,2147127003,2147780013,2147572763,2147575707,3410,2,13,17775
1333590634,5810,1014.9199829101562000,44.8822784423828100,574.1975708007812000,4.0450420379638670,54.9502410888671900,55,98,102,79,83,15454,0,0,0,0,2147124992,2147769901,2147570276,2147573952,233,2,13,15939
1333594234,5807,1018.6599731445312000,44.4319801330566400,573.6420288085938000,4.0623278617858890,55.0135612487793000,56,102,100,79,83,15459,0,0,0,0,2147124800,2147779849,2147574180,2147573494,243,2,13,39357
1333597834,5812,1014.7899780273438000,44.1170005798339840,572.9758300781250000,4.0830478668212890,55.0488891601562500,55,102,102,78,83,15456,0,0,0,0,2147124790,2147776868,2147570276,2147572553,51,2,13,1613
1333601434,5808,1013.2700195312500000,44.4733314514160160,573.4702148437500000,4.0676732063293460,55.0029487609863300,56,99,103,79,83,15456,0,0,0,0,2147124836,2147776941,2147570130,2147578816,259,2,13,33664
1333605034,5807,1013.7700195312500000,43.5887718200683600,573.3026733398438000,4.0728821754455570,55.1239585876464840,55,99,102,79,83,15455,0,0,0,0,2147124132,2147772900,2147570761,2147576192,3576,2,13,31541
1333608634,5810,1016.0100097656250000,43.2210311889648440,573.5910034179688000,4.0639128684997560,55.1791687011718750,55,100,102,78,84,15455,0,0,0,0,2147123190,2147773915,2147569508,2147576036,502,2,13,56863
1333612234,5811,1020.8099975585938000,44.7652206420898440,573.8952026367188000,4.0544509887695310,54.9635505676269500,55,101,103,79,84,15454,0,0,0,0,2147125156,2147775396,2147572781,2147574144,90,2,13,61267
1333615834,5807,1017.2700195312500000,42.5591506958007800,573.8405151367188000,4.0561518669128420,55.2819404602050800,56,99,101,78,85,15453,0,0,0,0,2147126491,2147771730,2147574738,2147573376,43,2,13,61823
1333619434,5809,1024.3299560546875000,45.1841506958007800,574.0394287109375000,4.0499668121337890,54.9071807861328100,55,101,101,79,84,15455,0,0,0,0,2147126162,2147775387,2147573933,2147575899,627,2,13,57621
1333623034,5806,1017.8099975585938000,43.2704086303710940,573.3795776367188000,4.0704879760742190,55.1743316650390600,55,100,102,78,84,15443,0,0,0,0,2147123584,2147775762,2147574793,2147574253,159,2,13,14112
1333626634,5808,1011.6900024414062000,43.5669898986816400,573.6633911132812000,4.0616631507873535,55.1341896057128900,56,101,101,79,84,15434,0,0,0,0,2147126674,2147775789,2147582656,2147571611,268,2,13,37053
1333630234,5808,1021.2700195312500000,45.1535186767578100,574.8164062500000000,4.0257911682128910,54.9242401123046900,54,115,103,78,85,15444,0,0,0,0,2147126345,2147775305,2147574601,2147574509,234,2,13,26243
1333633834,5810,1020.7700195312500000,45.2425384521484400,574.0391845703125000,4.0499711036682130,54.9028205871582000,55,100,102,78,84,15442,0,0,0,0,2147123373,2147774902,2147575780,2147574345,3415,2,13,64843
1333637434,5808,1014.9000244140625000,43.9581985473632800,574.2514038085938000,4.0433688163757320,55.0856094360351560,55,99,102,80,85,15434,0,0,0,0,2147122514,2147781056,2147574272,2147573705,3422,2,13,38413
1333641034,5811,1017.3400268554688000,43.2696609497070300,574.9537963867188000,4.0215148925781250,55.1869697570800800,55,100,103,79,84,15433,0,0,0,0,2147123794,2147781622,2147575789,2147573092,289,2,13,45137
1333644634,5809,1017.4500122070312000,44.2302894592285160,575.1682739257812000,4.0148410797119140,55.0583992004394500,55,100,102,79,84,15432,0,0,0,0,2147125577,2147778742,2147573513,2147572589,119,2,13,37515
1333648234,5810,1016.0499877929688000,43.6364707946777340,575.6544189453125000,3.9997100830078125,55.1416206359863300,54,99,102,79,84,15430,0,0,0,0,2147122276,2147773147,2147576109,2147569718,105,2,13,12724
1333651834,5809,1017.2600097656250000,44.3661193847656250,575.8311767578125000,3.9942069053649902,55.0468902587890600,54,100,103,79,84,15426,0,0,0,0,2147125330,2147780809,2147573101,2147575113,813,2,13,22241
1333655457,5808,1010.2299804687500000,43.5814399719238300,576.2888183593750000,3.9799649715423584,55.1614189147949200,54,100,101,78,84,15429,0,0,0,0,2147126253,2147778669,2147576749,2147571986,256,2,13,16622
